• Join FlightAware (Why Join?)
  • Login
  • US Flag 
07:01AM EDT


 

Airport Tracker/Info


-or-


 

Live Flight TrackerFlight Track Log ✈ DAL268 ✈ 08-Sep-2013 ✈ KSFO - KJFK

Flight Track Log - Related Links

Times and Time Zones

All times are in EDT time to prevent confusion due to time zone crossing. See the DAL268 flight status page for this flight to view local times or setup timezone preferences in your user account.

Time Position Orientation Groundspeed Altitude Reporting Facility
EDT Latitude Longitude Course Direction KTS MPH feet Rate Location/Type
02:34PM 37.6130 -122.3770 58° Northeast 110 127  Level FlightAware
02:35PM 37.6230 -122.3700 29° Northeast 161 185 200 1,500 Climbing FlightAware ADS-B
02:35PM 37.6299 -122.3650 30° Northeast 161 185 700 2,700 Climbing FlightAware ADS-B
02:35PM 37.6360 -122.3600 33° Northeast 165 190 1,100 2,280 Climbing FlightAware ADS-B
02:35PM 37.6383 -122.3570 46° Northeast 165 190 1,200 2,220 Climbing FlightAware ADS-B
02:35PM 37.6402 -122.3550 40° Northeast 166 191 1,400 2,640 Climbing FlightAware ADS-B
02:35PM 37.6428 -122.3510 51° Northeast 167 192 1,600 1,500 Climbing FlightAware ADS-B
02:35PM 37.6483 -122.3420 52° Northeast 179 206 1,800 1,500 Climbing FlightAware ADS-B
02:36PM 37.6557 -122.3320 47° Northeast 193 222 2,200 1,500 Climbing FlightAware ADS-B
02:36PM 37.6656 -122.3180 48° Northeast 214 246 2,500 1,320 Climbing FlightAware ADS-B
02:36PM 37.6766 -122.3030 47° Northeast 230 265 2,900 1,440 Climbing FlightAware ADS-B
02:36PM 37.6897 -122.2840 49° Northeast 249 287 3,300 1,800 Climbing FlightAware ADS-B
02:37PM 37.7048 -122.2640 46° Northeast 264 304 4,000 2,580 Climbing FlightAware ADS-B
02:37PM 37.7203 -122.2420 48° Northeast 266 306 4,900 2,820 Climbing FlightAware ADS-B
02:37PM 37.7338 -122.2240 47° Northeast 268 308 5,600 2,400 Climbing FlightAware ADS-B
02:38PM 37.7501 -122.2020 47° Northeast 277 319 6,300 2,340 Climbing FlightAware ADS-B
02:38PM 37.7732 -122.1740 44° Northeast 289 333 7,300 2,520 Climbing FlightAware ADS-B
02:38PM 37.7909 -122.1570 37° Northeast 291 335 8,000 2,580 Climbing FlightAware ADS-B
02:39PM 37.8082 -122.1410 36° Northeast 295 339 8,700 2,580 Climbing FlightAware ADS-B
02:39PM 37.8256 -122.1250 36° Northeast 298 343 9,400 2,400 Climbing FlightAware ADS-B
02:39PM 37.8355 -122.1160 36° Northeast 299 344 9,700 2,460 Climbing FlightAware ADS-B
02:39PM 37.8440 -122.1070 40° Northeast 300 345 10,100 2,400 Climbing FlightAware ADS-B
02:39PM 37.8516 -122.0970 46° Northeast 303 349 10,300 2,100 Climbing FlightAware ADS-B
02:39PM 37.8592 -122.0830 55° Northeast 304 350 10,700 2,520 Climbing FlightAware ADS-B
02:39PM 37.8623 -122.0760 61° Northeast 305 351 10,900 2,820 Climbing FlightAware ADS-B
02:40PM 37.8735 -122.0490 62° Northeast 305 351 11,700 2,760 Climbing FlightAware ADS-B
02:40PM 37.8866 -122.0150 64° Northeast 301 346 12,700 1,860 Climbing FlightAware ADS-B
02:41PM 37.9054 -121.9620 66° East 327 376 13,400 1,140 Climbing FlightAware ADS-B
02:41PM 37.9248 -121.9060 66° East 353 406 13,900 1,020 Climbing FlightAware ADS-B
02:41PM 37.9353 -121.8770 65° Northeast 365 420 14,200 1,080 Climbing FlightAware ADS-B
02:42PM 37.9554 -121.8350 59° Northeast 381 438 14,600 1,500 Climbing FlightAware ADS-B
02:42PM 37.9890 -121.7760 54° Northeast 389 448 15,600 1,980 Climbing FlightAware
02:43PM 38.0270 -121.7100 54° Northeast 392 451 16,900 2,040 Climbing FlightAware
02:44PM 38.0640 -121.6450 54° Northeast 396 456 18,000 1,920 Climbing FlightAware
02:44PM 38.0980 -121.5800 56° Northeast 399 459 19,100 1,740 Climbing FlightAware
02:45PM 38.1205 -121.5150 66° East 407 468 19,900 1,560 Climbing FlightAware ADS-B
02:45PM 38.1427 -121.4460 68° East 414 476 20,700 1,560 Climbing FlightAware ADS-B
02:46PM 38.1654 -121.3770 67° East 419 482 21,500 1,740 Climbing FlightAware ADS-B
02:46PM 38.1883 -121.3060 68° East 418 481 22,500 1,800 Climbing FlightAware ADS-B
02:47PM 38.2117 -121.2330 68° East 419 482 23,400 1,440 Climbing FlightAware ADS-B
02:47PM 38.2417 -121.1500 65° Northeast 424 488 24,200 1,320 Climbing FlightAware ADS-B
02:47PM 38.2535 -121.1260 58° Northeast 423 487 24,500 1,260 Climbing FlightAware ADS-B
02:48PM 38.2990 -121.0350 57° Northeast 431 496 25,400 1,200 Climbing FlightAware
02:49PM 38.3380 -120.9520 59° Northeast 438 504 26,200 1,200 Climbing FlightAware
02:49PM 38.3740 -120.8730 60° Northeast 443 510 26,900 1,200 Climbing FlightAware
02:50PM 38.4070 -120.8010 60° Northeast 447 514 27,600 1,140 Climbing FlightAware
02:51PM 38.4450 -120.7190 59° Northeast 452 520 28,200 1,080 Climbing FlightAware
02:51PM 38.4820 -120.6370 60° Northeast 455 524 28,900 1,380 Climbing FlightAware
02:52PM 38.5200 -120.5540 60° Northeast 451 519 29,900 1,500 Climbing FlightAware
02:52PM 38.5590 -120.4740 58° Northeast 449 517 30,700 1,320 Climbing FlightAware
02:53PM 38.5980 -120.3900 59° Northeast 448 516 31,500 1,320 Climbing FlightAware
02:53PM 38.6320 -120.3180 59° Northeast 447 514 32,200 1,320 Climbing FlightAware
02:54PM 38.6690 -120.2380 59° Northeast 443 510 33,000 1,200 Climbing FlightAware
02:55PM 38.7060 -120.1590 59° Northeast 441 507 33,700 1,200 Climbing FlightAware
02:55PM 38.7360 -120.0940 59° Northeast 440 506 34,300 960 Climbing FlightAware
02:56PM 38.7770 -120.0050 59° Northeast 444 511 34,800 780 Climbing FlightAware
02:56PM 38.8150 -119.9230 59° Northeast 446 513 35,300 840 Climbing FlightAware
02:57PM 38.8520 -119.8430 59° Northeast 446 513 35,800 900 Climbing FlightAware
02:58PM 38.8910 -119.7570 60° Northeast 445 512 36,400 840 Climbing FlightAware
02:58PM 38.9310 -119.6710 59° Northeast 445 512 36,900 420 Climbing FlightAware
02:59PM 38.9710 -119.5840 59° Northeast 445 512 37,000 60 Climbing FlightAware
02:59PM 39.0030 -119.5130 60° Northeast 446 513 37,000  Level FlightAware
03:00PM 39.0410 -119.4300 59° Northeast 449 517 37,000  Level FlightAware
03:01PM 39.0790 -119.3460 60° Northeast 449 517 37,000  Level FlightAware
03:01PM 39.1160 -119.2650 59° Northeast 449 517 37,000  Level FlightAware
03:02PM 39.1520 -119.1850 60° Northeast 450 518 37,000  Level FlightAware
03:02PM 39.1890 -119.1020 60° Northeast 451 519 37,000  Level FlightAware
03:03PM 39.2280 -119.0160 60° Northeast 453 521 37,000  Level FlightAware
03:03PM 39.2600 -118.9440 60° Northeast 454 522 37,000  Level FlightAware
03:04PM 39.2960 -118.8630 60° Northeast 455 524 37,000  Level FlightAware
03:05PM 39.3370 -118.7730 59° Northeast 457 526 37,000  Level FlightAware
03:05PM 39.3720 -118.6930 60° Northeast 459 528 37,000  Level FlightAware
03:06PM 39.4100 -118.6070 60° Northeast 461 531 37,000  Level FlightAware
03:06PM 39.4440 -118.5310 60° Northeast 462 532 37,000  Level FlightAware
03:07PM 39.4840 -118.4390 61° Northeast 464 534 37,000  Level FlightAware
03:08PM 39.5170 -118.3630 61° Northeast 464 534 37,000  Level FlightAware
03:08PM 39.5590 -118.2690 60° Northeast 466 536 37,000  Level FlightAware
03:09PM 39.5930 -118.1910 60° Northeast 467 537 37,000  Level FlightAware
03:09PM 39.6310 -118.1040 60° Northeast 468 539 37,000  Level FlightAware
03:10PM 39.6700 -118.0150 60° Northeast 469 540 37,000  Level FlightAware
03:10PM 39.7030 -117.9380 61° Northeast 470 541 37,000  Level FlightAware
03:11PM 39.7550 -117.8180 61° Northeast 471 542 37,000  Level FlightAware
03:12PM 39.7940 -117.7280 61° Northeast 473 544 37,000  Level FlightAware
03:12PM 39.8330 -117.6380 61° Northeast 473 544 37,000  Level FlightAware
03:13PM 39.8680 -117.5540 61° Northeast 474 545 37,000  Level FlightAware
03:14PM 39.9050 -117.4690 60° Northeast 475 547 37,000  Level FlightAware
03:14PM 39.9430 -117.3790 61° Northeast 478 550 37,000  Level FlightAware
03:15PM 39.9830 -117.2850 61° Northeast 478 550 37,000  Level FlightAware
03:15PM 40.0160 -117.2080 61° Northeast 478 550 37,000  Level FlightAware
03:16PM 40.0480 -117.1310 61° Northeast 478 550 37,000  Level FlightAware
03:17PM 40.0810 -117.0530 61° Northeast 478 550 37,000  Level FlightAware
03:17PM 40.1140 -116.9760 61° Northeast 478 550 37,000  Level FlightAware
03:18PM 40.1480 -116.8960 61° Northeast 478 550 37,000  Level FlightAware
03:19PM 40.1810 -116.8170 61° Northeast 478 550 37,000  Level FlightAware
03:19PM 40.2140 -116.7390 61° Northeast 478 550 37,000  Level FlightAware
03:20PM 40.2580 -116.6360 61° Northeast 478 550 37,000  Level FlightAware
03:21PM 40.2910 -116.5580 61° Northeast 478 550 37,000  Level FlightAware
03:21PM 40.3240 -116.4810 61° Northeast 478 550 37,000  Level FlightAware
03:22PM 40.4302 -116.2120 63° Northeast 490 564 37,000  Level FlightAware ADS-B
03:22PM 40.4644 -116.1280 62° Northeast 492 566 37,000  Level FlightAware ADS-B
03:23PM 40.4972 -116.0480 62° Northeast 493 567 37,000  Level FlightAware ADS-B
03:23PM 40.5293 -115.9680 62° Northeast 494 568 37,000  Level FlightAware ADS-B
03:24PM 40.5620 -115.8880 62° Northeast 495 570 37,000  Level FlightAware ADS-B
03:25PM 40.6065 -115.7780 62° Northeast 496 571 37,000  Level FlightAware ADS-B
03:26PM 40.6698 -115.6200 62° Northeast 497 572 37,000  Level FlightAware ADS-B
03:26PM 40.7189 -115.4980 62° Northeast 498 573 37,000  Level FlightAware ADS-B
03:27PM 40.7514 -115.4170 62° Northeast 499 574 37,000  Level FlightAware ADS-B
03:27PM 40.7847 -115.3330 62° Northeast 499 574 37,000  Level FlightAware ADS-B
03:28PM 40.8170 -115.2510 62° Northeast 499 574 37,000  Level FlightAware ADS-B
03:28PM 40.8503 -115.1670 62° Northeast 499 574 37,000  Level FlightAware ADS-B
03:29PM 40.8801 -115.0920 62° Northeast 499 574 37,000  Level FlightAware ADS-B
03:29PM 40.9148 -115.0040 62° Northeast 498 573 37,000  Level FlightAware ADS-B
03:31PM 41.0107 -114.7590 63° Northeast 496 571 37,000  Level FlightAware ADS-B
03:31PM 41.0425 -114.6770 63° Northeast 496 571 37,000  Level FlightAware ADS-B
03:32PM 41.0749 -114.5930 63° Northeast 494 568 37,000  Level FlightAware ADS-B
03:32PM 41.1061 -114.5130 63° Northeast 494 568 37,000  Level FlightAware ADS-B
03:33PM 41.1374 -114.4310 63° Northeast 494 568 37,000  Level FlightAware ADS-B
03:33PM 41.1721 -114.3420 63° Northeast 494 568 37,000  Level FlightAware ADS-B
03:34PM 41.2060 -114.2530 63° Northeast 493 567 37,000  Level FlightAware ADS-B
03:35PM 41.2425 -114.1570 63° Northeast 493 567 37,000  Level FlightAware ADS-B
03:35PM 41.2738 -114.0760 63° Northeast 493 567 37,000  Level FlightAware ADS-B
03:36PM 41.3051 -113.9930 63° Northeast 493 567 37,000  Level FlightAware ADS-B
03:36PM 41.3363 -113.9110 63° Northeast 492 566 37,000  Level FlightAware ADS-B
03:36PM 41.3486 -113.8740 66° East 491 565 37,000  Level FlightAware ADS-B
03:37PM 41.3594 -113.8340 70° East 489 563 37,000  Level FlightAware ADS-B
03:37PM 41.3669 -113.7950 76° East 486 559 37,000  Level FlightAware ADS-B
03:37PM 41.3739 -113.7380 81° East 485 558 37,000  Level FlightAware ADS-B
03:37PM 41.3775 -113.6770 85° East 483 556 37,000  Level FlightAware ADS-B
03:38PM 41.3808 -113.5880 87° East 483 556 37,000  Level FlightAware ADS-B
03:38PM 41.3849 -113.5000 86° East 483 556 37,000  Level FlightAware ADS-B
03:39PM 41.3902 -113.4110 85° East 485 558 37,000  Level FlightAware ADS-B
03:39PM 41.3962 -113.3170 85° East 485 558 37,000  Level FlightAware ADS-B
03:40PM 41.4024 -113.2250 85° East 486 559 37,000  Level FlightAware ADS-B
03:40PM 41.4082 -113.1370 85° East 487 560 37,000  Level FlightAware ADS-B
03:41PM 41.4142 -113.0460 85° East 487 560 37,000  Level FlightAware ADS-B
03:42PM 41.4199 -112.9540 85° East 487 560 37,000  Level FlightAware ADS-B
03:42PM 41.4266 -112.8450 85° East 488 562 37,000  Level FlightAware ADS-B
03:43PM 41.4320 -112.7540 85° East 487 560 37,000  Level FlightAware ADS-B
03:43PM 41.4388 -112.6370 86° East 488 562 37,000  Level FlightAware ADS-B
03:44PM 41.4444 -112.5390 86° East 489 563 37,000  Level FlightAware ADS-B
03:44PM 41.4498 -112.4450 86° East 489 563 37,000  Level FlightAware ADS-B
03:45PM 41.4548 -112.3540 86° East 489 563 37,000  Level FlightAware ADS-B
03:45PM 41.4597 -112.2630 86° East 489 563 37,000  Level FlightAware ADS-B
03:46PM 41.4649 -112.1680 86° East 488 562 37,000  Level FlightAware ADS-B
03:46PM 41.4699 -112.0730 86° East 488 562 37,000  Level FlightAware ADS-B
03:47PM 41.4746 -111.9820 86° East 487 560 37,000  Level FlightAware ADS-B
03:48PM 41.4797 -111.8850 86° East 487 560 37,000  Level FlightAware ADS-B
03:48PM 41.4842 -111.7940 86° East 486 559 37,000  Level FlightAware ADS-B
03:49PM 41.4888 -111.7050 86° East 486 559 37,000  Level FlightAware ADS-B
03:49PM 41.4932 -111.6130 86° East 486 559 37,000  Level FlightAware ADS-B
03:50PM 41.4976 -111.5230 86° East 486 559 37,000  Level FlightAware ADS-B
03:50PM 41.5019 -111.4320 86° East 485 558 37,000  Level FlightAware ADS-B
03:51PM 41.5060 -111.3430 86° East 486 559 37,000  Level FlightAware ADS-B
03:51PM 41.5102 -111.2530 86° East 485 558 37,000  Level FlightAware ADS-B
03:52PM 41.5142 -111.1640 87° East 484 557 37,000  Level FlightAware ADS-B
03:52PM 41.5171 -111.0990 87° East 484 557 37,000  Level FlightAware ADS-B
03:52PM 41.5184 -111.0700 87° East 483 556 37,000  Level FlightAware ADS-B
03:53PM 41.5247 -110.9250 87° East 482 555 37,000  Level FlightAware ADS-B
03:53PM 41.5284 -110.8360 87° East 481 554 37,000  Level FlightAware ADS-B
03:54PM 41.5321 -110.7480 87° East 480 552 37,000  Level FlightAware ADS-B
03:55PM 41.5380 -110.5990 87° East 479 551 37,000  Level FlightAware
03:55PM 41.5420 -110.4930 87° East 479 551 37,000  Level FlightAware
03:56PM 41.5460 -110.3940 87° East 480 552 37,000  Level FlightAware
03:56PM 41.5500 -110.2860 87° East 480 552 37,000  Level FlightAware
03:57PM 41.5540 -110.1890 87° East 480 552 37,000  Level FlightAware
03:58PM 41.5570 -110.0960 88° East 480 552 37,000  Level FlightAware
03:58PM 41.5610 -110.0060 87° East 480 552 37,000  Level FlightAware
03:59PM 41.5640 -109.9150 87° East 480 552 37,000  Level FlightAware
03:59PM 41.5680 -109.8220 87° East 480 552 37,000  Level FlightAware
04:00PM 41.5720 -109.7310 87° East 480 552 37,000  Level FlightAware
04:01PM 41.5750 -109.6400 87° East 480 552 37,000  Level FlightAware
04:01PM 41.5790 -109.5500 87° East 480 552 37,000  Level FlightAware
04:02PM 41.5820 -109.4590 87° East 480 552 37,000  Level FlightAware
04:02PM 41.5860 -109.3630 87° East 480 552 37,000  Level FlightAware
04:03PM 41.5890 -109.2720 87° East 480 552 37,000  Level FlightAware
04:04PM 41.5930 -109.1820 87° East 480 552 37,000  Level FlightAware
04:04PM 41.5970 -109.0880 87° East 480 552 37,000  Level FlightAware
04:05PM 41.6000 -109.0030 87° East 480 552 37,000  Level FlightAware
04:05PM 41.6040 -108.9070 87° East 480 552 37,000  Level FlightAware
04:06PM 41.6070 -108.8190 87° East 480 552 37,000  Level FlightAware
04:07PM 41.6110 -108.7250 87° East 480 552 37,000  Level FlightAware
04:08PM 41.6431 -108.3289 87° East 482 555 37,000  Level Denver Center
04:09PM 41.6747 -108.1336 78° East 483 556 37,000  Level Denver Center
04:10PM 41.7086 -107.9658 75° East 487 560 37,000  Level Denver Center
04:11PM 41.7492 -107.7714 74° East 485 558 37,000  Level Denver Center
04:12PM 41.7844 -107.6050 74° East 486 559 37,000  Level Denver Center
04:17PM 41.9700 -106.5960 74° East 483 556 37,000  Level FlightAware
04:18PM 41.9840 -106.4930 80° East 483 556 37,000  Level FlightAware
04:19PM 41.9950 -106.3920 82° East 483 556 37,000  Level FlightAware
04:19PM 42.0090 -106.2760 81° East 482 555 37,000  Level FlightAware
04:20PM 42.0240 -106.1660 80° East 481 554 37,000  Level FlightAware
04:20PM 42.0340 -106.0760 81° East 479 551 37,000  Level FlightAware
04:21PM 42.0450 -105.9640 82° East 478 550 37,000  Level FlightAware
04:22PM 42.0540 -105.8630 83° East 477 549 37,000  Level FlightAware
04:22PM 42.0650 -105.7590 82° East 477 549 37,000  Level FlightAware
04:23PM 42.0800 -105.6070 82° East 477 549 37,000  Level FlightAware
04:24PM 42.0890 -105.5150 82° East 477 549 37,000  Level FlightAware
04:24PM 42.1000 -105.3920 83° East 478 550 37,000  Level FlightAware
04:25PM 42.1110 -105.2850 82° East 478 550 37,000  Level FlightAware
04:25PM 42.1190 -105.1960 83° East 479 551 37,000  Level FlightAware
04:26PM 42.1290 -105.0920 83° East 479 551 37,000  Level FlightAware
04:27PM 42.1390 -105.0020 81° East 479 551 37,000  Level FlightAware
04:27PM 42.1480 -104.9090 83° East 479 551 37,000  Level FlightAware
04:28PM 42.1580 -104.8180 82° East 479 551 37,000  Level FlightAware
04:28PM 42.1680 -104.7250 82° East 479 551 37,000  Level FlightAware
04:29PM 42.1760 -104.5600 86° East 483 556 37,000  Level FlightAware
04:30PM 42.1860 -104.4590 82° East 483 556 37,000  Level FlightAware
04:30PM 42.1940 -104.3670 83° East 483 556 37,000  Level FlightAware
04:31PM 42.2050 -104.2320 84° East 485 558 37,000  Level FlightAware
04:31PM 42.2140 -104.1400 82° East 485 558 37,000  Level FlightAware
04:32PM 42.2220 -104.0510 83° East 485 558 37,000  Level FlightAware
04:33PM 42.2300 -103.9590 83° East 485 558 37,000  Level FlightAware
04:33PM 42.2390 -103.8610 83° East 485 558 37,000  Level FlightAware
04:34PM 42.2470 -103.7670 83° East 485 558 37,000  Level FlightAware
04:34PM 42.2560 -103.6750 82° East 485 558 37,000  Level FlightAware
04:35PM 42.2670 -103.4830 86° East 479 551 37,000  Level FlightAware
04:36PM 42.2770 -103.3480 84° East 477 549 37,000  Level FlightAware
04:36PM 42.2850 -103.2570 83° East 477 549 37,000  Level FlightAware
04:37PM 42.2940 -103.1140 85° East 470 541 37,000  Level FlightAware
04:37PM 42.2990 -103.0430 85° East 470 541 37,000  Level FlightAware
04:38PM 42.3060 -102.9530 84° East 470 541 37,000  Level FlightAware
04:39PM 42.3130 -102.8640 84° East 470 541 37,000  Level FlightAware
04:39PM 42.3200 -102.7740 84° East 470 541 37,000  Level FlightAware
04:40PM 42.3270 -102.6850 84° East 470 541 37,000  Level FlightAware
04:40PM 42.3340 -102.5930 84° East 470 541 37,000  Level FlightAware
04:41PM 42.3410 -102.5030 84° East 470 541 37,000  Level FlightAware
04:42PM 42.3480 -102.4140 84° East 470 541 37,000  Level FlightAware
04:42PM 42.3550 -102.3240 84° East 470 541 37,000  Level FlightAware
04:43PM 42.3620 -102.2320 84° East 470 541 37,000  Level FlightAware
04:44PM 42.3700 -102.1380 83° East 470 541 37,000  Level FlightAware
04:44PM 42.3770 -102.0480 84° East 470 541 37,000  Level FlightAware
04:45PM 42.3840 -101.9590 84° East 470 541 37,000  Level FlightAware
04:45PM 42.3910 -101.8690 84° East 470 541 37,000  Level FlightAware
04:46PM 42.3970 -101.7790 85° East 470 541 37,000  Level FlightAware
04:47PM 42.4040 -101.6900 84° East 470 541 37,000  Level FlightAware
04:47PM 42.4150 -101.3242 84° East 483 556 37,000  Level Denver Center
04:48PM 42.4239 -101.1497 86° East 484 557 37,000  Level Denver Center
04:49PM 42.4344 -100.9753 85° East 484 557 37,000  Level Denver Center
04:55PM 42.4887 -99.8996 85° East 483 556 37,000  Level FlightAware ADS-B
04:55PM 42.4929 -99.8083 86° East 481 554 37,000  Level FlightAware ADS-B
04:56PM 42.4971 -99.7160 86° East 481 554 37,000  Level FlightAware ADS-B
04:56PM 42.5011 -99.6252 87° East 480 552 37,000  Level FlightAware ADS-B
04:57PM 42.5050 -99.5351 87° East 478 550 37,000  Level FlightAware ADS-B
04:57PM 42.5089 -99.4453 87° East 477 549 37,000  Level FlightAware ADS-B
04:58PM 42.5126 -99.3552 87° East 477 549 37,000  Level FlightAware ADS-B
04:59PM 42.5208 -99.1542 87° East 477 549 37,000  Level FlightAware ADS-B
05:00PM 42.5244 -99.0638 87° East 477 549 37,000  Level FlightAware ADS-B
05:00PM 42.5278 -98.9742 87° East 466 536 37,000  Level FlightAware ADS-B
05:01PM 42.5311 -98.8871 87° East 456 525 37,000  Level FlightAware ADS-B
05:01PM 42.5344 -98.8006 87° East 450 518 37,000  Level FlightAware ADS-B
05:02PM 42.5405 -98.6314 87° East 448 516 37,000  Level FlightAware ADS-B
05:03PM 42.5472 -98.4378 87° East 445 512 37,000  Level FlightAware ADS-B
05:04PM 42.5501 -98.3475 87° East 446 513 37,000  Level FlightAware ADS-B
05:04PM 42.5529 -98.2627 87° East 447 514 37,000  Level FlightAware ADS-B
05:05PM 42.5556 -98.1775 88° East 447 514 37,000  Level FlightAware ADS-B
05:05PM 42.5582 -98.0917 88° East 447 514 37,000  Level FlightAware ADS-B
05:06PM 42.5608 -98.0073 88° East 447 514 37,000  Level FlightAware ADS-B
05:06PM 42.5632 -97.9226 88° East 447 514 37,000  Level FlightAware ADS-B
05:07PM 42.5658 -97.8343 88° East 447 514 37,000  Level FlightAware ADS-B
05:07PM 42.5685 -97.7349 88° East 447 514 37,000  Level FlightAware ADS-B
05:08PM 42.5709 -97.6489 88° East 447 514 37,000  Level FlightAware ADS-B
05:08PM 42.5732 -97.5627 88° East 446 513 37,000  Level FlightAware ADS-B
05:09PM 42.5753 -97.4769 88° East 447 514 37,000  Level FlightAware ADS-B
05:09PM 42.5774 -97.3932 88° East 446 513 37,000  Level FlightAware ADS-B
05:10PM 42.5794 -97.3077 88° East 446 513 37,000  Level FlightAware ADS-B
05:10PM 42.5815 -97.2226 88° East 445 512 37,000  Level FlightAware ADS-B
05:11PM 42.5834 -97.1380 88° East 445 512 37,000  Level FlightAware ADS-B
05:11PM 42.5852 -97.0544 88° East 444 511 37,000  Level FlightAware ADS-B
05:12PM 42.5871 -96.9655 88° East 443 510 37,000  Level FlightAware ADS-B
05:13PM 42.5895 -96.8422 88° East 442 509 37,000  Level FlightAware ADS-B
05:13PM 42.5912 -96.7588 88° East 441 507 37,000  Level FlightAware ADS-B
05:14PM 42.5927 -96.6759 89° East 441 507 37,000  Level FlightAware ADS-B
05:14PM 42.5942 -96.5882 89° East 441 507 37,000  Level FlightAware ADS-B
05:15PM 42.5957 -96.5008 89° East 441 507 37,000  Level FlightAware ADS-B
05:15PM 42.5971 -96.4178 89° East 441 507 37,000  Level FlightAware ADS-B
05:16PM 42.5984 -96.3338 89° East 442 509 37,000  Level FlightAware ADS-B
05:16PM 42.5997 -96.2469 89° East 442 509 37,000  Level FlightAware ADS-B
05:17PM 42.6010 -96.1518 89° East 442 509 37,000  Level FlightAware ADS-B
05:17PM 42.6030 -96.0670 88° East 442 509 37,000  Level FlightAware
05:18PM 42.6027 -96.0197 90° East 443 510 37,000  Level FlightAware ADS-B
05:18PM 42.6037 -95.9362 89° East 444 511 37,000  Level FlightAware ADS-B
05:19PM 42.6050 -95.8216 89° East 444 511 37,000  Level FlightAware ADS-B
05:19PM 42.6059 -95.7382 89° East 445 512 37,000  Level FlightAware ADS-B
05:20PM 42.6067 -95.6542 89° East 446 513 37,000  Level FlightAware ADS-B
05:20PM 42.6074 -95.5686 89° East 448 516 37,000  Level FlightAware ADS-B
05:21PM 42.6081 -95.4837 89° East 448 516 37,000  Level FlightAware ADS-B
05:21PM 42.6088 -95.3969 89° East 449 517 37,000  Level FlightAware ADS-B
05:22PM 42.6093 -95.3122 90° East 450 518 37,000  Level FlightAware ADS-B
05:22PM 42.6098 -95.2262 90° East 450 518 37,000  Level FlightAware ADS-B
05:23PM 42.6102 -95.1415 90° East 450 518 37,000  Level FlightAware ADS-B
05:23PM 42.6106 -95.0542 90° East 450 518 37,000  Level FlightAware ADS-B
05:24PM 42.6109 -94.9686 90° East 450 518 37,000  Level FlightAware ADS-B
05:25PM 42.6112 -94.8745 90° East 450 518 37,000  Level FlightAware ADS-B
05:25PM 42.6114 -94.7900 90° East 449 517 37,000  Level FlightAware ADS-B
05:26PM 42.6115 -94.7047 90° East 448 516 37,000  Level FlightAware ADS-B
05:26PM 42.6115 -94.6187 90° East 448 516 37,000  Level FlightAware ADS-B
05:27PM 42.6115 -94.5317 90° East 447 514 37,000  Level FlightAware ADS-B
05:27PM 42.6115 -94.4463 90° East 445 512 37,000  Level FlightAware ADS-B
05:28PM 42.6113 -94.3622 90° East 444 511 37,000  Level FlightAware ADS-B
05:28PM 42.6128 -94.2783 89° East 443 510 37,000  Level FlightAware ADS-B
05:29PM 42.6132 -94.1934 90° East 440 506 37,000  Level FlightAware ADS-B
05:29PM 42.6126 -94.1059 91° East 439 505 37,000  Level FlightAware ADS-B
05:30PM 42.6128 -94.0087 90° East 439 505 37,000  Level FlightAware ADS-B
05:30PM 42.6136 -93.9184 89° East 439 505 37,000  Level FlightAware ADS-B
05:31PM 42.6143 -93.8352 89° East 439 505 37,000  Level FlightAware ADS-B
05:31PM 42.6150 -93.7453 89° East 439 505 37,000  Level FlightAware ADS-B
05:32PM 42.6160 -93.5760 89° East 443 510 37,000  Level FlightAware
05:33PM 42.6160 -93.4700 90° East 447 514 37,000  Level FlightAware
05:34PM 42.6170 -93.3790 89° East 449 517 37,000  Level FlightAware
05:34PM 42.6170 -93.2790 90° East 450 518 37,000  Level FlightAware
05:35PM 42.6170 -93.1990 90° East 452 520 37,000  Level FlightAware
05:35PM 42.6170 -93.0730 90° East 455 524 37,000  Level FlightAware
05:36PM 42.6170 -92.9890 90° East 464 534 37,000  Level FlightAware
05:36PM 42.6160 -92.8870 91° East 475 547 37,000  Level FlightAware
05:37PM 42.6160 -92.7780 90° East 480 552 37,000  Level FlightAware
05:38PM 42.6160 -92.6590 90° East 484 557 37,000  Level FlightAware
05:38PM 42.6150 -92.5700 91° East 484 557 37,000  Level FlightAware
05:39PM 42.6140 -92.4560 91° East 483 556 37,000  Level FlightAware
05:39PM 42.6140 -92.3480 90° East 481 554 37,000  Level FlightAware
05:40PM 42.6130 -92.2430 91° East 480 552 37,000  Level FlightAware
05:41PM 42.6120 -92.1300 91° East 479 551 37,000  Level FlightAware
05:41PM 42.6110 -92.0360 91° East 478 550 37,000  Level FlightAware
05:42PM 42.6100 -91.9290 91° East 478 550 37,000  Level FlightAware
05:42PM 42.6090 -91.8200 91° East 477 549 37,000  Level FlightAware
05:43PM 42.6080 -91.7260 91° East 476 548 37,000  Level FlightAware
05:43PM 42.6060 -91.6140 91° East 475 547 37,000  Level FlightAware
05:44PM 42.6050 -91.5040 91° East 475 547 37,000  Level FlightAware
05:45PM 42.6030 -91.4120 92° East 475 547 37,000  Level FlightAware
05:45PM 42.6020 -91.3090 91° East 475 547 37,000  Level FlightAware
05:46PM 42.6000 -91.1980 91° East 475 547 37,000 240 Level FlightAware
05:46PM 42.5980 -91.1020 92° East 477 549 37,300 960 Climbing FlightAware
05:47PM 42.5960 -90.9900 91° East 473 544 38,100 1,140 Climbing FlightAware
05:48PM 42.5940 -90.8870 91° East 470 541 38,700 720 Climbing FlightAware
05:48PM 42.5920 -90.7820 91° East 472 543 39,000 240 Climbing FlightAware
05:49PM 42.5900 -90.6860 92° East 475 547 39,000  Level FlightAware
05:49PM 42.5870 -90.5720 92° East 480 552 39,000  Level FlightAware
05:50PM 42.5850 -90.4710 92° East 483 556 39,000  Level FlightAware
05:50PM 42.5820 -90.3660 92° East 483 556 39,000  Level FlightAware
05:51PM 42.5800 -90.2630 91° East 481 554 39,000  Level FlightAware
05:52PM 42.5770 -90.1490 92° East 480 552 39,000  Level FlightAware
05:52PM 42.5740 -90.0550 92° East 478 550 39,000  Level FlightAware
05:53PM 42.5710 -89.9460 92° East 476 548 39,000  Level FlightAware
05:53PM 42.5680 -89.8440 92° East 474 545 39,000  Level FlightAware
05:54PM 42.5650 -89.7410 92° East 472 543 39,000  Level FlightAware
05:55PM 42.5620 -89.6370 92° East 470 541 39,000  Level FlightAware
05:55PM 42.5590 -89.5380 92° East 466 536 39,000  Level FlightAware
05:56PM 42.5560 -89.4370 92° East 463 533 39,000  Level FlightAware
05:56PM 42.5520 -89.3220 93° East 460 529 39,000  Level FlightAware
05:57PM 42.5490 -89.2310 93° East 458 527 39,000  Level FlightAware
05:57PM 42.5460 -89.1380 92° East 457 526 39,000  Level FlightAware
05:58PM 42.5420 -89.0340 93° East 457 526 39,000  Level FlightAware
05:59PM 42.5380 -88.9310 93° East 456 525 39,000  Level FlightAware
05:59PM 42.5350 -88.8330 92° East 456 525 39,000  Level FlightAware
06:00PM 42.5310 -88.7260 93° East 457 526 39,000  Level FlightAware
06:00PM 42.5270 -88.6270 93° East 458 527 39,000  Level FlightAware
06:01PM 42.5230 -88.5350 93° East 460 529 39,000  Level FlightAware
06:02PM 42.5190 -88.4270 93° East 464 534 39,000  Level FlightAware
06:02PM 42.5150 -88.3320 93° East 467 537 39,000  Level FlightAware
06:03PM 42.5100 -88.2250 94° East 469 540 39,000  Level FlightAware
06:03PM 42.5060 -88.1310 93° East 470 541 39,000  Level FlightAware
06:04PM 42.5010 -88.0150 93° East 471 542 39,000  Level FlightAware
06:04PM 42.5000 -87.9200 91° East 470 541 39,000  Level FlightAware
06:05PM 42.5000 -87.8130 90° East 472 543 39,000  Level FlightAware
06:06PM 42.5000 -87.7090 90° East 472 543 39,000  Level FlightAware
06:06PM 42.4990 -87.6010 91° East 472 543 39,000  Level FlightAware
06:07PM 42.4990 -87.5120 90° East 472 543 39,000  Level FlightAware
06:07PM 42.4990 -87.3950 90° East 472 543 39,000  Level FlightAware
06:08PM 42.4980 -87.2930 91° East 472 543 39,000  Level FlightAware
06:09PM 42.4970 -87.1870 91° East 473 544 39,000  Level FlightAware
06:09PM 42.4970 -87.0920 90° East 474 545 39,000  Level FlightAware
06:10PM 42.4960 -86.9880 91° East 474 545 39,000  Level FlightAware
06:10PM 42.4950 -86.8800 91° East 476 548 39,000  Level FlightAware
06:11PM 42.4940 -86.8310 92° East 476 548 39,000  Level FlightAware
06:11PM 42.4930 -86.6810 90° East 476 548 39,000  Level FlightAware
06:12PM 42.4920 -86.5730 91° East 476 548 39,000  Level FlightAware
06:13PM 42.4900 -86.4760 92° East 476 548 39,000  Level FlightAware
06:13PM 42.4890 -86.3840 91° East 475 547 39,000  Level FlightAware
06:14PM 42.4870 -86.2650 91° East 476 548 39,000  Level FlightAware
06:14PM 42.4860 -86.1690 91° East 475 547 39,000  Level FlightAware
06:15PM 42.4840 -86.0620 91° East 474 545 39,000  Level FlightAware
06:15PM 42.4820 -85.9560 91° East 474 545 39,000  Level FlightAware
06:16PM 42.4800 -85.8130 91° East 473 544 39,000  Level FlightAware
06:17PM 42.4780 -85.7120 92° East 474 545 39,000  Level FlightAware
06:17PM 42.4760 -85.6110 92° East 474 545 39,000  Level FlightAware
06:18PM 42.4740 -85.5050 91° East 474 545 39,000  Level FlightAware
06:19PM 42.4710 -85.4030 92° East 474 545 39,000  Level FlightAware
06:19PM 42.4690 -85.3000 91° East 474 545 39,000  Level FlightAware
06:20PM 42.4670 -85.1970 91° East 474 545 39,000  Level FlightAware
06:20PM 42.4640 -85.0990 92° East 474 545 39,000  Level FlightAware
06:21PM 42.4610 -84.9840 92° East 475 547 39,000  Level FlightAware
06:21PM 42.4590 -84.8860 92° East 475 547 39,000  Level FlightAware
06:22PM 42.4560 -84.7850 92° East 475 547 39,000  Level FlightAware
06:23PM 42.4530 -84.6730 92° East 475 547 39,000  Level FlightAware
06:23PM 42.4500 -84.5680 92° East 474 545 39,000  Level FlightAware
06:24PM 42.4470 -84.4750 92° East 474 545 39,000  Level FlightAware
06:24PM 42.4430 -84.3620 93° East 474 545 39,000  Level FlightAware
06:25PM 42.4400 -84.2630 92° East 474 545 39,000  Level FlightAware
06:26PM 42.4360 -84.1500 93° East 474 545 39,000  Level FlightAware
06:26PM 42.4330 -84.0550 92° East 474 545 39,000  Level FlightAware
06:27PM 42.4290 -83.9410 93° East 474 545 39,000  Level FlightAware
06:27PM 42.4260 -83.8420 92° East 474 545 39,000  Level FlightAware
06:28PM 42.4220 -83.7340 93° East 474 545 39,000  Level FlightAware
06:29PM 42.4180 -83.6280 93° East 474 545 39,000  Level FlightAware
06:29PM 42.4140 -83.5340 93° East 474 545 39,000  Level FlightAware
06:30PM 42.4100 -83.4350 93° East 474 545 39,000  Level FlightAware
06:30PM 42.4060 -83.3280 93° East 474 545 39,000  Level FlightAware
06:31PM 42.4020 -83.2200 93° East 472 543 39,000  Level FlightAware
06:31PM 42.3980 -83.1240 93° East 469 540 39,000  Level FlightAware
06:32PM 42.3930 -83.0160 94° East 466 536 39,000  Level FlightAware
06:33PM 42.3880 -82.9130 94° East 463 533 39,000  Level FlightAware
06:33PM 42.3840 -82.8120 93° East 461 531 39,000  Level FlightAware
06:34PM 42.3790 -82.7100 94° East 458 527 39,000  Level FlightAware
06:34PM 42.3750 -82.6090 93° East 455 524 39,000  Level FlightAware
06:35PM 42.3720 -82.5200 93° East 454 522 39,000  Level FlightAware
06:36PM 42.3680 -82.4190 93° East 454 522 39,000  Level FlightAware
06:36PM 42.3640 -82.3140 93° East 455 524 39,000  Level FlightAware
06:37PM 42.3600 -82.2260 93° East 456 525 39,000  Level FlightAware
06:37PM 42.3570 -82.1410 93° East 456 525 39,000  Level FlightAware
06:38PM 42.3520 -82.0270 93° East 458 527 39,000  Level FlightAware
06:39PM 42.3460 -81.9080 94° East 459 528 39,000  Level FlightAware
06:39PM 42.3420 -81.8100 93° East 459 528 39,000  Level FlightAware
06:40PM 42.3370 -81.7120 94° East 461 531 39,000  Level FlightAware
06:40PM 42.3330 -81.6080 93° East 463 533 39,000  Level FlightAware
06:41PM 42.3270 -81.4840 94° East 464 534 39,000  Level FlightAware
06:42PM 42.3210 -81.3590 94° East 466 536 39,000  Level FlightAware
06:42PM 42.3160 -81.2630 94° East 468 539 39,000  Level FlightAware
06:43PM 42.3110 -81.1720 94° East 470 541 39,000  Level FlightAware
06:44PM 42.3050 -81.0410 93° East 472 543 39,000  Level FlightAware
06:44PM 42.2980 -80.9100 94° East 474 545 39,000  Level FlightAware
06:45PM 42.2930 -80.8180 94° East 475 547 39,000  Level FlightAware
06:45PM 42.2870 -80.7150 94° East 477 549 39,000  Level FlightAware
06:46PM 42.2810 -80.5990 94° East 478 550 39,000  Level FlightAware
06:47PM 42.2750 -80.4970 95° East 478 550 39,000  Level FlightAware
06:47PM 42.2700 -80.4070 94° East 479 551 39,000  Level FlightAware
06:48PM 42.2630 -80.2850 94° East 477 549 39,000  Level FlightAware
06:48PM 42.2580 -80.1950 94° East 475 547 39,000  Level FlightAware
06:49PM 42.2510 -80.0930 95° East 472 543 39,000  Level FlightAware
06:49PM 42.2450 -79.9900 94° East 473 544 39,000  Level FlightAware
06:50PM 42.2380 -79.8730 95° East 472 543 39,000  Level FlightAware
06:51PM 42.2320 -79.7730 95° East 471 542 39,000  Level FlightAware
06:51PM 42.2270 -79.6940 95° East 470 541 39,000  Level FlightAware
06:52PM 42.2190 -79.5800 95° East 469 540 39,000  Level FlightAware
06:52PM 42.2120 -79.4680 95° East 469 540 39,000  Level FlightAware
06:53PM 42.2010 -79.3760 99° East 479 551 39,000  Level FlightAware
06:54PM 42.1590 -79.2700 118° Southeast 503 579 39,000  Level FlightAware
06:54PM 42.1110 -79.2020 134° Southeast 510 587 39,000  Level FlightAware
06:55PM 42.0530 -79.1210 134° Southeast 509 586 39,000  Level FlightAware
06:55PM 41.9950 -79.0410 134° Southeast 507 583 39,000  Level FlightAware
06:56PM 41.9450 -78.9720 134° Southeast 504 580 39,000  Level FlightAware
06:57PM 41.8770 -78.8780 134° Southeast 501 577 39,000  Level FlightAware
06:57PM 41.8290 -78.8110 134° Southeast 500 575 39,000  Level FlightAware
06:58PM 41.7740 -78.7350 134° Southeast 499 574 39,000  Level FlightAware
06:58PM 41.7140 -78.6520 134° Southeast 497 572 39,000  Level FlightAware
06:59PM 41.6660 -78.5480 122° Southeast 481 554 39,000  Level FlightAware
06:59PM 41.6530 -78.4490 100° East 462 532 39,000  Level FlightAware
07:00PM 41.6630 -78.3520 82° East 444 511 39,000  Level FlightAware
07:01PM 41.6770 -78.2650 78° East 445 512 39,000  Level FlightAware
07:01PM 41.6920 -78.1660 78° East 451 519 39,000  Level FlightAware
07:02PM 41.7130 -78.0300 78° East 456 525 39,000  Level FlightAware
07:03PM 41.7280 -77.9370 78° East 456 525 39,000  Level FlightAware
07:03PM 41.7430 -77.8380 78° East 456 525 39,000  Level FlightAware
07:04PM 41.7560 -77.7500 79° East 456 525 39,000  Level FlightAware
07:04PM 41.7720 -77.6460 78° East 456 525 39,000  Level FlightAware
07:05PM 41.7790 -77.5680 83° East 467 537 39,000  Level FlightAware
07:05PM 41.7640 -77.4660 101° East 484 557 39,000  Level FlightAware
07:06PM 41.7380 -77.3680 110° East 488 562 39,000  Level FlightAware
07:07PM 41.7040 -77.2450 110° East 488 562 39,000  Level FlightAware
07:07PM 41.6790 -77.1520 110° East 486 559 39,000  Level FlightAware
07:08PM 41.6520 -77.0560 111° Southeast 484 557 39,000  Level FlightAware
07:08PM 41.6260 -76.9560 109° East 483 556 39,000  Level FlightAware
07:09PM 41.5990 -76.8570 110° East 481 554 39,000  Level FlightAware
07:10PM 41.5720 -76.7600 110° East 481 554 39,000  Level FlightAware
07:10PM 41.5470 -76.6670 110° East 480 552 39,000  Level FlightAware
07:11PM 41.5170 -76.5590 110° East 478 550 39,000 -120 Level FlightAware
07:11PM 41.4920 -76.4680 110° East 478 550 38,900 -840 Descending FlightAware
07:12PM 41.4660 -76.3730 110° East 482 555 38,100 -1,500 Descending FlightAware
07:13PM 41.4370 -76.2720 111° Southeast 489 563 37,100 -1,500 Descending FlightAware
07:13PM 41.4070 -76.1640 110° East 491 565 36,300 -1,380 Descending FlightAware
07:14PM 41.3820 -76.0750 110° East 491 565 35,600 -2,040 Descending FlightAware
07:14PM 41.3570 -75.9840 110° East 496 571 34,100 -2,880 Descending FlightAware
07:15PM 41.3250 -75.8740 111° Southeast 501 577 32,200 -3,240 Descending FlightAware
07:15PM 41.3010 -75.7890 111° Southeast 506 582 30,600 -3,420 Descending FlightAware
07:16PM 41.2590 -75.6490 112° Southeast 512 589 27,900 -3,060 Descending FlightAware
07:17PM 41.2270 -75.5510 113° Southeast 506 582 26,400 -2,580 Descending FlightAware
07:17PM 41.1950 -75.4560 114° Southeast 498 573 25,000 -2,520 Descending FlightAware
07:18PM 41.1630 -75.3590 114° Southeast 491 565 23,500 -1,740 Descending FlightAware
07:18PM 41.1300 -75.2620 114° Southeast 488 562 23,000 -480 Descending FlightAware
07:19PM 41.1010 -75.1770 114° Southeast 484 557 23,000  Level FlightAware
07:20PM 41.0660 -75.0730 114° Southeast 482 555 23,000 -300 Level FlightAware
07:20PM 41.0320 -74.9740 114° Southeast 479 551 22,700 -780 Descending FlightAware
07:21PM 41.0030 -74.8830 113° Southeast 463 533 22,100 -1,260 Descending FlightAware
07:21PM 40.9909 -74.8184 104° East 454 522 21,500 -1,380 Descending FlightAware ADS-B
07:22PM 40.9786 -74.7157 99° East 419 482 20,700 -1,140 Descending FlightAware ADS-B
07:22PM 40.9708 -74.6403 98° East 386 444 20,200 -840 Descending FlightAware ADS-B
07:23PM 40.9665 -74.5949 97° East 375 432 20,000 -180 Descending FlightAware ADS-B
07:24PM 40.9750 -74.4650 85° East 371 427 20,000  Level FlightAware
07:24PM 40.9773 -74.4352 84° East 372 428 20,000 -300 Level FlightAware ADS-B
07:24PM 40.9790 -74.4091 85° East 373 429 19,900 -600 Descending FlightAware ADS-B
07:24PM 40.9774 -74.3840 95° East 376 433 19,800 -660 Descending FlightAware ADS-B
07:24PM 40.9739 -74.3673 106° East 382 440 19,700 -960 Descending FlightAware ADS-B
07:25PM 40.9550 -74.3007 111° Southeast 383 441 19,200 -660 Descending FlightAware ADS-B
07:25PM 40.9348 -74.2216 109° East 387 445 19,000 -180 Descending FlightAware ADS-B
07:26PM 40.9137 -74.1405 109° East 383 441 19,000  Level FlightAware ADS-B
07:26PM 40.9058 -74.1194 116° Southeast 384 442 19,000 -780 Level FlightAware ADS-B
07:27PM 40.8783 -74.0594 121° Southeast 382 440 18,500 -1,140 Descending FlightAware ADS-B
07:27PM 40.8455 -73.9933 123° Southeast 376 433 17,800 -1,380 Descending FlightAware ADS-B
07:28PM 40.8080 -73.9180 123° Southeast 367 422 16,800 -1,500 Descending FlightAware
07:29PM 40.7750 -73.8500 123° Southeast 363 418 15,900 -1,500 Descending FlightAware
07:29PM 40.7665 -73.8336 124° Southeast 362 417 15,700 -1,980 Descending FlightAware ADS-B
07:30PM 40.6950 -73.7540 140° Southeast 350 403 13,700 -2,100 Descending FlightAware
07:30PM 40.6480 -73.7110 145° Southeast 341 392 12,400 -2,340 Descending FlightAware
07:31PM 40.6010 -73.6870 159° South 327 376 11,100 -2,400 Descending FlightAware
07:31PM 40.5540 -73.6690 164° South 318 366 9,900 -2,220 Descending FlightAware
07:32PM 40.5370 -73.6620 163° South 315 362 9,500 -2,220 Descending FlightAware
07:32PM 40.5040 -73.6480 162° South 310 357 8,600 -2,100 Descending FlightAware
07:32PM 40.4770 -73.6370 163° South 310 357 8,000 -1,680 Descending FlightAware
07:33PM 40.4490 -73.6270 165° South 295 339 7,500 -1,380 Descending FlightAware
07:33PM 40.4290 -73.6200 165° South 281 323 7,200 -840 Descending FlightAware
07:33PM 40.4050 -73.6110 164° South 257 296 7,000 -900 Descending FlightAware
07:34PM 40.3820 -73.6030 165° South 246 283 6,600 -1,440 Descending FlightAware
07:34PM 40.3590 -73.5940 163° South 245 282 6,000 -1,500 Descending FlightAware
07:34PM 40.3370 -73.5860 165° South 248 285 5,600 -1,080 Descending FlightAware
07:35PM 40.3160 -73.5810 170° South 246 283 5,300 -1,080 Descending FlightAware
07:35PM 40.2960 -73.5920 203° Southwest 241 277 4,900 -1,140 Descending FlightAware
07:35PM 40.2880 -73.6060 233° Southwest 235 270 4,700 -1,140 Descending FlightAware
07:35PM 40.2860 -73.6220 261° West 229 264 4,500 -900 Descending FlightAware
07:36PM 40.2940 -73.6490 291° West 224 258 4,200 -960 Descending FlightAware
07:36PM 40.3020 -73.6650 303° West 223 257 3,900 -1,020 Descending FlightAware
07:36PM 40.3140 -73.6870 306° West 223 257 3,600 -1,080 Descending FlightAware
07:37PM 40.3230 -73.7040 305° West 223 257 3,300 -1,140 Descending FlightAware
07:37PM 40.3350 -73.7260 306° West 221 254 3,000 -720 Descending FlightAware
07:37PM 40.3440 -73.7440 303° West 216 249 2,900  Descending FlightAware
07:37PM 40.3540 -73.7630 305° West 197 227 3,000 120 Climbing FlightAware
07:38PM 40.3610 -73.7790 300° West 180 207 3,000  Level FlightAware
07:38PM 40.3700 -73.7960 305° West 168 193 3,000  Level FlightAware
07:38PM 40.3760 -73.8100 299° West 168 193 3,000  Level FlightAware
07:39PM 40.3850 -73.8260 306° West 168 193 3,000  Level FlightAware
07:39PM 40.3930 -73.8430 302° West 168 193 3,000  Level FlightAware
07:39PM 40.3980 -73.8540 301° West 170 196 3,000  Level FlightAware
07:40PM 40.4080 -73.8730 305° West 158 182 3,000  Level FlightAware
07:40PM 40.4160 -73.8890 303° West 155 178 3,000  Level FlightAware
07:40PM 40.4190 -73.8910 333° Northwest 153 176 3,000  Level FlightAware
07:40PM 40.4270 -73.8940 344° North 153 176 3,000  Level FlightAware
07:40PM 40.4400 -73.8940 360° North 156 180 3,000  Level FlightAware
07:41PM 40.4690 -73.8900 North 155 178 3,000  Level FlightAware
07:41PM 40.4740 -73.8870 25° Northeast 158 182 3,000  Level FlightAware
07:42PM 40.4880 -73.8780 26° Northeast 157 181 3,000 -420 Level FlightAware
07:42PM 40.5031 -73.8660 31° Northeast 157 181 2,700 -780 Descending FlightAware ADS-B
07:43PM 40.5310 -73.8440 31° Northeast 156 180 2,100 -840 Descending FlightAware
07:43PM 40.5430 -73.8350 30° Northeast 150 173 1,800 -720 Descending FlightAware
07:44PM 40.5560 -73.8240 33° Northeast 140 161 1,600 -660 Descending FlightAware
07:44PM 40.5640 -73.8180 30° Northeast 132 152 1,400 -900 Descending FlightAware
07:44PM 40.5750 -73.8090 32° Northeast 131 151 1,100 -720 Descending FlightAware
07:44PM 40.5820 -73.8040 28° Northeast 133 153 1,000 -540 Descending FlightAware
07:45PM 40.5920 -73.7960 31° Northeast 127 146 800 -780 Descending FlightAware
07:45PM 40.6000 -73.7900 30° Northeast 124 143 600 -720 Descending FlightAware
07:45PM 40.6110 -73.7820 29° Northeast 130 150 400 -720 Descending FlightAware
07:46PM 40.6220 -73.7730 32° Northeast 128 147 100 -840 Descending FlightAware
07:46PM 40.6320 -73.7650 31° Northeast 120 138 -300 Descending FlightAware